FW3611 Weather Reports


Display with metric or nautical units.
time (UTC)temp
F
wind
direction
speed
MPH
gust
MPH
rain 1hr
in
rain 24hr
in
rain mn
in
humidity
%
barometer
mb
20260509011254 69 210 0.0 2.0 0.07 0.07 0.06 90 1016.1
20260509010742 69 210 0.0 0.0 0.06 0.06 0.06 89 1016.2
20260509010240 69 210 0.0 0.0 0.05 0.05 0.05 89 1016.3
20260509005745 69 210 0.0 0.0 0.04 0.04 0.03 88 1016.4
20260509005238 69 210 0.0 1.0 0.03 0.03 0.03 87 1016.4
20260509004732 69 210 1.0 3.0 0.02 0.02 0.02 87 1016.4
20260509004231 70 210 1.0 3.0 0.02 0.02 0.02 87 1016.4
20260509003728 70 211 0.0 3.0 0.01 0.01 0.01 86 1016.3
20260509002722 71 143 0.0 0.0 0.00 0.00 0.00 87 1015.8
20260509002218 71 142 0.0 0.0 0.00 0.00 0.00 87 1015.5
20260509001716 71 142 0.0 0.0 0.00 0.00 0.00 86 1015.3
20260509001217 71 142 0.0 0.0 0.00 0.00 0.00 85 1015.4
20260509000726 71 142 0.0 0.0 0.00 0.00 0.00 86 1015.3
20260509000212 71 142 0.0 0.0 0.00 0.00 0.00 86 1015.4
20260508235220 72 142 0.0 1.0 0.00 0.00 0.00 84 1015.3
20260508234722 72 142 0.0 1.0 0.00 0.00 0.00 84 1015.3
20260508234215 72 142 1.0 2.0 0.00 0.00 0.00 84 1015.2
20260508233208 73 126 0.0 1.0 0.00 0.00 0.00 82 1014.7
20260508232707 73 126 0.0 2.0 0.00 0.00 0.00 82 1014.6
20260508232205 73 126 0.0 2.0 0.00 0.00 0.00 81 1014.4
20260508231704 74 126 0.0 0.0 0.00 0.00 0.00 79 1014.3
20260508231205 74 126 0.0 0.0 0.00 0.00 0.00 79 1014.4
20260508230705 74 126 0.0 0.0 0.00 0.00 0.00 77 1014.2
20260508230201 74 126 0.0 0.0 0.00 0.00 0.00 76 1014.1
20260508225707 74 126 0.0 2.0 0.00 0.00 0.00 76 1014.0
20260508225204 74 126 1.0 2.0 0.00 0.00 0.00 75 1014.1
20260508224703 74 126 1.0 2.0 0.00 0.00 0.00 75 1014.1
20260508224201 75 126 1.0 2.0 0.00 0.00 0.00 74 1014.1
20260508223659 75 126 1.0 2.0 0.00 0.00 0.00 73 1014.0
20260508223200 75 126 1.0 2.0 0.00 0.00 0.00 73 1013.8
20260508222200 75 126 1.0 2.0 0.00 0.00 0.00 72 1013.7
20260508221658 75 126 1.0 3.0 0.00 0.00 0.00 72 1013.6
20260508221157 75 126 2.0 3.0 0.00 0.00 0.00 72 1013.7
20260508220652 75 126 1.0 3.0 0.00 0.00 0.00 71 1013.7
20260508220146 75 126 1.0 3.0 0.00 0.00 0.00 72 1013.7
20260508215646 76 126 1.0 3.0 0.00 0.00 0.00 69 1013.6
20260508215146 76 126 1.0 3.0 0.00 0.00 0.00 68 1013.6
20260508214647 76 133 0.0 2.0 0.00 0.00 0.00 70 1013.5
20260508214148 76 133 1.0 3.0 0.00 0.00 0.00 69 1013.5
20260508213650 76 133 1.0 3.0 0.00 0.00 0.00 70 1013.6
20260508213151 76 132 1.0 4.0 0.00 0.00 0.00 69 1013.6
20260508212649 76 132 1.0 4.0 0.00 0.00 0.00 70 1013.6
20260508212146 76 81 1.0 6.0 0.00 0.00 0.00 69 1013.6
20260508211646 76 81 1.0 6.0 0.00 0.00 0.00 68 1013.5
20260508211144 76 98 1.0 3.0 0.00 0.00 0.00 67 1013.6
20260508210646 76 96 1.0 3.0 0.00 0.00 0.00 68 1013.9
20260508210144 76 96 1.0 4.0 0.00 0.00 0.00 68 1014.0
20260508205645 76 96 1.0 4.0 0.00 0.00 0.00 68 1014.0
20260508205139 76 96 1.0 3.0 0.00 0.00 0.00 68 1014.2
20260508204633 76 96 1.0 3.0 0.00 0.00 0.00 68 1014.2
20260508204133 75 96 1.0 4.0 0.00 0.00 0.00 67 1014.3
20260508203630 76 96 1.0 4.0 0.00 0.00 0.00 67 1014.5
20260508203132 76 98 1.0 4.0 0.00 0.00 0.00 66 1014.6
20260508202631 76 104 1.0 2.0 0.00 0.00 0.00 65 1014.7
20260508202130 76 104 1.0 2.0 0.00 0.00 0.00 66 1014.7
20260508201630 76 104 1.0 2.0 0.00 0.00 0.00 65 1014.8
20260508200636 76 103 1.0 2.0 0.00 0.00 0.00 66 1014.9
20260508195635 76 103 2.0 4.0 0.00 0.00 0.00 66 1015.1
20260508195130 76 103 1.0 4.0 0.00 0.00 0.00 65 1015.2
20260508194627 76 119 1.0 3.0 0.00 0.00 0.00 65 1015.2
20260508193626 76 99 2.0 4.0 0.00 0.00 0.00 65 1015.5
20260508193119 76 106 1.0 3.0 0.00 0.00 0.00 65 1015.5
20260508192618 76 166 2.0 6.0 0.00 0.00 0.00 65 1015.7
20260508192130 75 166 2.0 6.0 0.00 0.00 0.00 65 1015.6
20260508191617 76 103 2.0 6.0 0.00 0.00 0.00 64 1015.5
20260508191123 76 104 2.0 4.0 0.00 0.00 0.00 65 1015.5
20260508190616 75 104 2.0 4.0 0.00 0.00 0.00 64 1015.4
20260508190112 76 102 2.0 4.0 0.00 0.00 0.00 64 1015.5
20260508185614 75 45 3.0 5.0 0.00 0.00 0.00 68 1015.4
20260508185112 75 40 3.0 6.0 0.00 0.00 0.00 64 1015.5
20260508184610 75 57 2.0 6.0 0.00 0.00 0.00 65 1015.6
20260508184111 75 106 1.0 3.0 0.00 0.00 0.00 67 1015.6
20260508183610 75 65 1.0 4.0 0.00 0.00 0.00 68 1015.6
20260508183109 75 67 2.0 10.0 0.00 0.00 0.00 67 1015.4
20260508182609 74 66 3.0 10.0 0.00 0.00 0.00 67 1015.6
20260508182108 75 59 3.0 8.0 0.00 0.00 0.00 69 1015.3
20260508181608 74 56 3.0 8.0 0.00 0.00 0.00 66 1015.7
20260508181108 74 62 2.0 6.0 0.00 0.00 0.00 68 1015.7
20260508180608 74 67 1.0 3.0 0.00 0.00 0.00 66 1015.8
20260508180109 74 67 1.0 3.0 0.00 0.00 0.00 66 1015.9
20260508175610 74 68 2.0 7.0 0.00 0.00 0.00 66 1016.1
20260508175115 74 66 3.0 7.0 0.00 0.00 0.00 66 1016.0
20260508174613 73 106 2.0 5.0 0.00 0.00 0.00 66 1016.2
20260508174123 73 53 3.0 6.0 0.00 0.00 0.00 68 1016.2
20260508173612 73 33 4.0 6.0 0.00 0.00 0.00 67 1016.1
20260508173108 73 60 3.0 7.0 0.00 0.00 0.00 68 1016.1
20260508172610 73 71 3.0 7.0 0.00 0.00 0.00 69 1016.2
20260508171607 73 58 3.0 5.0 0.00 0.00 0.00 69 1016.3
20260508171115 72 58 3.0 6.0 0.00 0.00 0.00 71 1016.4
20260508170608 72 51 2.0 6.0 0.00 0.00 0.00 68 1016.6
20260508165607 72 121 2.0 5.0 0.00 0.00 0.00 71 1016.8
20260508165106 72 65 2.0 6.0 0.00 0.00 0.00 70 1016.8
20260508164606 72 60 3.0 8.0 0.00 0.00 0.00 67 1016.8
20260508164102 72 71 3.0 8.0 0.00 0.00 0.00 69 1016.8
20260508163606 72 23 2.0 6.0 0.00 0.00 0.00 72 1016.8
20260508163105 72 34 3.0 7.0 0.00 0.00 0.00 71 1016.7
20260508162610 72 68 3.0 8.0 0.00 0.00 0.00 71 1016.9
20260508162104 72 87 3.0 8.0 0.00 0.00 0.00 72 1016.8
20260508161608 72 67 3.0 9.0 0.00 0.00 0.00 74 1016.8
20260508161105 71 47 5.0 9.0 0.00 0.00 0.00 75 1016.9
20260508160104 70 57 4.0 9.0 0.00 0.00 0.00 75 1017.1
20260508155607 70 63 4.0 10.0 0.00 0.00 0.00 76 1017.1
20260508154607 70 323 4.0 9.0 0.00 0.00 0.00 77 1017.2
20260508154103 69 54 4.0 9.0 0.00 0.00 0.00 76 1017.2
20260508153606 69 30 3.0 7.0 0.00 0.00 0.00 75 1017.2
20260508153102 69 68 2.0 7.0 0.00 0.00 0.00 75 1017.2
20260508152606 69 70 3.0 7.0 0.00 0.00 0.00 75 1017.3
20260508152104 69 70 4.0 8.0 0.00 0.00 0.00 75 1017.2
20260508151607 69 65 3.0 8.0 0.00 0.01 0.00 75 1017.3
20260508151106 69 19 4.0 8.0 0.00 0.01 0.00 74 1017.3
20260508150608 69 17 3.0 10.0 0.00 0.01 0.00 73 1017.2
20260508145605 69 51 3.0 6.0 0.00 0.02 0.00 74 1017.3
20260508145102 69 61 4.0 8.0 0.00 0.02 0.00 74 1017.2
20260508144605 68 50 4.0 8.0 0.00 0.03 0.00 74 1017.1
20260508144104 68 74 3.0 7.0 0.00 0.04 0.00 74 1017.2
20260508143605 68 28 3.0 6.0 0.00 0.05 0.00 74 1017.4
20260508143103 68 13 2.0 5.0 0.00 0.06 0.00 73 1017.4
20260508142606 68 67 2.0 6.0 0.00 0.09 0.00 74 1017.4
20260508142105 68 68 3.0 7.0 0.00 0.11 0.00 74 1017.3
20260508141555 68 15 4.0 9.0 0.00 0.13 0.00 74 1017.5
20260508141052 68 50 4.0 9.0 0.00 0.15 0.00 74 1017.5
20260508140042 67 24 4.0 8.0 0.00 0.17 0.00 75 1017.1
20260508135542 67 27 3.0 8.0 0.00 0.17 0.00 75 1017.1
20260508134541 67 351 3.0 5.0 0.00 0.17 0.00 75 1017.3
20260508134043 67 2 3.0 7.0 0.00 0.17 0.00 76 1017.3
20260508133537 66 10 2.0 8.0 0.00 0.18 0.00 76 1017.1
20260508133035 66 346 2.0 8.0 0.00 0.18 0.00 76 1017.0
20260508132537 66 45 3.0 10.0 0.00 0.18 0.00 76 1017.0
20260508132036 66 51 4.0 10.0 0.00 0.18 0.00 75 1016.8
20260508131536 66 356 4.0 7.0 0.00 0.18 0.00 76 1016.8
20260508131035 66 0 3.0 7.0 0.00 0.19 0.00 75 1016.9
20260508130037 66 17 3.0 6.0 0.00 0.21 0.00 75 1016.8
20260508125534 66 33 2.0 6.0 0.00 0.22 0.00 75 1016.8
20260508123528 66 20 5.0 11.0 0.00 0.27 0.00 77 1016.4
20260508123029 66 331 4.0 11.0 0.00 0.29 0.00 77 1016.6
20260508122535 66 351 3.0 8.0 0.00 0.30 0.00 77 1016.7
20260508121024 66 3 2.0 4.0 0.00 0.33 0.00 78 1016.0
20260508120526 66 3 2.0 5.0 0.00 0.33 0.00 78 1016.0
20260508120025 66 356 2.0 6.0 0.00 0.33 0.00 77 1016.1
20260508115523 66 351 2.0 6.0 0.00 0.33 0.00 78 1016.2
20260508115022 66 356 2.0 5.0 0.00 0.33 0.00 78 1016.1
20260508114033 66 356 2.0 4.0 0.00 0.33 0.00 78 1015.9
20260508113536 65 5 2.0 4.0 0.00 0.33 0.00 78 1015.9
20260508113028 65 5 1.0 4.0 0.00 0.33 0.00 78 1015.9
20260508112519 65 20 1.0 3.0 0.00 0.33 0.00 77 1015.9
20260508112021 65 20 2.0 3.0 0.00 0.33 0.00 77 1015.7
20260508111017 65 20 1.0 4.0 0.00 0.33 0.00 76 1015.4
20260508110515 65 20 1.0 4.0 0.00 0.33 0.00 76 1015.2
20260508110016 65 20 2.0 4.0 0.00 0.33 0.00 77 1015.3
20260508105517 65 20 2.0 3.0 0.00 0.33 0.00 78 1015.3
20260508105014 65 20 2.0 6.0 0.00 0.33 0.00 78 1015.2
20260508104513 65 21 1.0 6.0 0.00 0.33 0.00 78 1015.0
20260508104022 65 40 1.0 2.0 0.00 0.33 0.00 79 1014.9
20260508103519 65 40 1.0 3.0 0.00 0.33 0.00 78 1015.0
20260508102504 65 40 1.0 4.0 0.00 0.33 0.00 80 1014.7
20260508101958 65 40 1.0 4.0 0.00 0.33 0.00 80 1014.8
20260508101453 66 40 0.0 2.0 0.00 0.33 0.00 80 1014.9
20260508100455 66 40 0.0 2.0 0.00 0.33 0.00 78 1014.7
20260508095951 66 40 0.0 2.0 0.00 0.33 0.00 77 1014.6
20260508095449 66 40 0.0 2.0 0.00 0.33 0.00 77 1014.5
20260508094442 67 40 1.0 3.0 0.00 0.33 0.00 75 1014.4
20260508093940 67 40 1.0 4.0 0.00 0.33 0.00 75 1014.3
20260508093440 67 40 2.0 4.0 0.00 0.33 0.00 75 1014.3
20260508092935 67 40 1.0 3.0 0.00 0.33 0.00 75 1014.4
20260508092435 67 40 1.0 3.0 0.00 0.33 0.00 75 1014.4
20260508091936 67 40 2.0 4.0 0.00 0.33 0.00 75 1014.4
20260508091436 67 40 2.0 4.0 0.00 0.33 0.00 75 1014.2
20260508090934 67 40 2.0 3.0 0.00 0.33 0.00 75 1014.2
20260508090439 67 40 1.0 3.0 0.00 0.33 0.00 74 1014.1
20260508085936 67 40 1.0 4.0 0.00 0.33 0.00 75 1014.3
20260508085433 68 40 1.0 4.0 0.00 0.33 0.00 74 1014.3
20260508084435 68 40 2.0 5.0 0.00 0.33 0.00 74 1014.1
20260508083933 68 346 2.0 4.0 0.00 0.33 0.00 75 1014.0
20260508082930 68 346 2.0 5.0 0.00 0.33 0.00 75 1014.1
20260508082430 68 346 3.0 5.0 0.00 0.33 0.00 76 1014.1
20260508081930 68 336 3.0 8.0 0.00 0.33 0.00 76 1014.2
20260508081427 68 351 3.0 8.0 0.00 0.33 0.00 77 1014.1
20260508080927 68 30 3.0 6.0 0.00 0.33 0.00 78 1013.7
20260508080429 68 13 3.0 6.0 0.00 0.33 0.00 78 1014.0
20260508075927 68 1 3.0 7.0 0.00 0.33 0.00 79 1013.9
20260508074926 68 25 2.0 4.0 0.00 0.33 0.00 81 1014.1
20260508074430 68 25 3.0 8.0 0.00 0.33 0.00 81 1013.9
20260508073928 69 18 3.0 8.0 0.00 0.33 0.00 81 1014.1
20260508073424 69 20 3.0 8.0 0.00 0.33 0.00 81 1014.2
20260508072421 69 0 2.0 5.0 0.00 0.33 0.00 81 1014.0
20260508071925 69 8 3.0 5.0 0.00 0.33 0.00 81 1013.9
20260508070422 70 341 3.0 8.0 0.00 0.33 0.00 80 1014.2
20260508065921 70 318 4.0 10.0 0.00 0.33 0.00 80 1014.2
20260508065419 70 356 5.0 11.0 0.00 0.33 0.00 80 1014.0
20260508064420 71 336 5.0 12.0 0.00 0.33 0.00 80 1014.1
20260508063919 71 326 6.0 12.0 0.00 0.33 0.00 81 1014.1
20260508063419 71 4 7.0 13.0 0.00 0.33 0.00 82 1014.1
20260508062417 72 4 9.0 14.0 0.00 0.33 0.00 84 1014.1
20260508061917 72 11 8.0 14.0 0.00 0.33 0.00 87 1014.1
20260508061419 72 356 6.0 14.0 0.00 0.33 0.00 89 1014.1
20260508060917 73 0 5.0 13.0 0.00 0.33 0.00 90 1014.1
20260508060418 73 9 5.0 9.0 0.00 0.33 0.00 90 1014.1
20260508055918 73 330 6.0 12.0 0.00 0.33 0.00 91 1014.1
20260508055419 73 320 5.0 12.0 0.00 0.33 0.00 91 1014.2
20260508054921 73 306 3.0 8.0 0.00 0.33 0.00 91 1014.0
20260508053919 73 296 3.0 9.0 0.00 0.33 0.00 92 1014.1
20260508053419 73 265 3.0 8.0 0.00 0.33 0.00 92 1014.2
20260508052931 73 256 2.0 4.0 0.00 0.33 0.00 92 1014.1
20260508052418 73 256 2.0 4.0 0.00 0.33 0.00 92 1013.9
20260508051917 73 256 2.0 4.0 0.00 0.33 0.00 92 1013.8
20260508051418 73 248 2.0 4.0 0.00 0.33 0.00 92 1013.8
20260508050918 73 247 1.0 3.0 0.00 0.33 0.00 92 1013.7
20260508050418 73 247 1.0 3.0 0.00 0.33 0.00 91 1013.7
20260508045416 73 247 1.0 4.0 0.00 0.33 0.00 91 1013.5
20260508044917 73 247 2.0 4.0 0.00 0.33 0.00 91 1013.6
20260508043416 73 241 1.0 3.0 0.00 0.33 0.00 90 1013.6
20260508042914 73 240 1.0 3.0 0.00 0.33 0.00 90 1013.4
20260508041910 74 240 2.0 5.0 0.00 0.33 0.00 90 1013.6
20260508041410 74 241 2.0 3.0 0.00 0.33 0.00 90 1013.6
20260508040908 74 241 2.0 3.0 0.00 0.33 0.00 90 1013.7
20260508040410 74 241 2.0 3.0 0.00 0.33 0.00 89 1013.6
20260508035911 74 241 2.0 3.0 0.00 0.33 0.33 89 1013.5
20260508034909 74 241 1.0 4.0 0.00 0.33 0.33 89 1013.3
20260508034412 74 241 2.0 4.0 0.00 0.33 0.33 89 1013.3
20260508032910 74 241 2.0 5.0 0.00 0.33 0.33 89 1013.7
20260508032414 74 241 2.0 5.0 0.00 0.33 0.33 89 1013.7
20260508031910 74 253 2.0 3.0 0.00 0.33 0.33 89 1013.7
20260508031407 74 254 1.0 3.0 0.00 0.33 0.33 88 1013.6
20260508030905 74 254 2.0 7.0 0.00 0.33 0.33 88 1013.6
20260508030403 74 254 2.0 7.0 0.00 0.33 0.33 88 1013.6
20260508024904 74 220 2.0 4.0 0.00 0.33 0.33 88 1013.6
20260508024358 74 219 2.0 5.0 0.00 0.33 0.33 88 1013.5
20260508023855 74 217 2.0 5.0 0.00 0.33 0.33 88 1013.4
20260508023355 74 218 2.0 4.0 0.00 0.33 0.33 88 1013.3
20260508022857 74 218 2.0 4.0 0.00 0.33 0.33 88 1013.2
20260508022356 74 219 2.0 4.0 0.00 0.33 0.33 87 1013.1
20260508021857 74 219 2.0 4.0 0.00 0.33 0.33 87 1013.0
20260508015857 75 227 2.0 7.0 0.00 0.33 0.33 87 1012.7
20260508015355 75 225 2.0 5.0 0.00 0.33 0.33 86 1012.7
20260508014856 75 225 2.0 5.0 0.00 0.33 0.33 86 1012.7
20260508013855 75 230 2.0 5.0 0.00 0.33 0.33 86 1012.6
20260508012349 75 242 1.0 2.0 0.00 0.33 0.33 86 1012.5
20260508011850 76 242 1.0 2.0 0.00 0.33 0.33 86 1012.5